Flag for Romania Weather past 2 weeks in Târgu Mureş, Romania

Now
68 °F

Partly sunny.


Feels Like: 68 °F
Forecast: 59 / 81 °F
Wind: 5 mph from Northeast

Location: Tirgu Mures Airport

Current Time: Jul 24, 2014 at 9:56:17 AM

Latest Report: Jul 24, 2014 at 9:30 AM


Visibility: N/A

Pressure: 29.83 "Hg

Humidity: 83%

Dew point: 63 °F

Location of Târgu MureşLocation

Historic Weather in Târgu Mureş — Graph

°F

Târgu Mureş temperature yesterday

Maximum temperature yesterday: 77 °F (at 11:30 AM)
Minimum temperature yesterday: 61 °F (at 11:00 PM)
Average temperature yesterday: 68 °F

Past Weeks' High & Low Weather Summary

 TemperatureHumidityPressure
High88 °F (Jul 21, 3:30 PM)100% (Jul 10, 12:00 AM)30.07 "Hg (Jul 10, 12:00 AM)
Low54 °F (Jul 12, 6:00 AM)27% (Jul 21, 8:00 PM)29.59 "Hg (Jul 11, 2:00 PM)
Average70 °F73%29.88 "Hg
* Reported Jul 9 9:00 AM — Jul 24 8:30 AM, Târgu Mureş, Weather by CustomWeather, © 2014

Note: Actual official high and low records may vary slightly from our data, if they occured in-between our weather recording intervals... More about our weather records

Advertising

Târgu Mureş weather history for previous 24 hours

 ConditionsComfort  
Time TempWeatherWind HumidityBarometerVisibility
8:30 AM
Jul 24
64 °FFog.7 mph94%29.83 "Hg3 mi
8:00 AM64 °FPassing clouds.5 mph94%29.83 "Hg6 mi
7:30 AM63 °FFog.2 mph100%29.83 "Hg3 mi
7:00 AM59 °FFog.2 mph100%29.83 "Hg1 mi
6:30 AM59 °FFog.5 mph100%29.83 "Hg1 mi
6:00 AM59 °FFog.2 mph100%29.83 "Hg1 mi
5:30 AM59 °FFog.2 mph100%29.83 "Hg1 mi
5:00 AM61 °FFog.5 mph100%29.80 "Hg3 mi
4:00 AM61 °FPassing clouds.5 mph94%29.80 "Hg4 mi
3:00 AM61 °FClear.5 mph100%29.83 "Hg4 mi
2:00 AM61 °FClear.2 mph94%29.83 "Hg4 mi
1:00 AM61 °FClear.2 mph94%29.83 "Hg5 mi
12:00 AM59 °FClear.2 mph100%29.80 "Hg10 mi
11:00 PM
Jul 23
61 °FClear.2 mph94%29.80 "Hg10 mi
10:00 PM63 °FPassing clouds.2 mph94%29.80 "HgN/A
9:00 PM64 °FPassing clouds.2 mph94%29.80 "HgN/A
8:30 PM66 °FPassing clouds.2 mph88%29.80 "HgN/A
8:00 PM66 °FSprinkles. Scattered clouds.5 mph88%29.80 "HgN/A
7:30 PM66 °FSprinkles. Scattered clouds.5 mph88%29.80 "HgN/A
7:00 PM66 °FScattered clouds.2 mph88%29.80 "HgN/A
6:30 PM64 °FScattered clouds.2 mph94%29.77 "HgN/A
6:00 PM64 °FScattered clouds.2 mph94%29.77 "HgN/A
5:30 PM64 °FThunderstorms. Scattered clouds.9 mph88%29.77 "HgN/A
5:00 PM68 °FThunderstorms. Broken clouds.5 mph83%29.77 "HgN/A
4:30 PM68 °FThunderstorms. Broken clouds.16 mph83%29.74 "HgN/A
4:00 PM75 °FThunderstorms. Scattered clouds.9 mph61%29.74 "HgN/A
3:00 PM73 °FThunderstorms. Scattered clouds.9 mph78%29.74 "HgN/A
2:30 PM68 °FThunderstorms. Scattered clouds.12 mph88%29.74 "Hg5 mi
2:00 PM70 °FThunderstorms. Scattered clouds.12 mph88%29.74 "Hg5 mi
1:00 PM77 °FThundershowers. Broken clouds.7 mph61%29.74 "HgN/A
12:30 PM77 °FScattered clouds.7 mph61%29.77 "HgN/A
12:00 PM77 °FScattered clouds.7 mph65%29.77 "HgN/A
11:30 AM77 °FScattered clouds.7 mph65%29.77 "HgN/A
11:00 AM73 °FScattered clouds.9 mph69%29.77 "HgN/A
9:00 AM68 °FScattered clouds.7 mph88%29.77 "HgN/A
Weather by CustomWeather, © 2014

See weather overviewHow to use our weather pages